This is the latest recevied weather packets stored in our database for station/object EA7RX-4. If no packets are shown the sender has not sent any weather packets the latest 10 day(s).
| Time | Temp. | Humidity | Pressure | Rain* | Wind** | Luminosity | Snow |
|---|---|---|---|---|---|---|---|
| 1787482203 | 26.67° C | 43% | 1016.4 hPa | 0 mm | - | 935 W/m² | - |
| 1787481603 | 26.67° C | 45% | 1016.6 hPa | 0 mm | - | 917 W/m² | - |
| 1787481003 | 26.67° C | 43% | 1016.7 hPa | 0 mm | - | 847 W/m² | - |
| 1787480403 | 26.11° C | 45% | 1016.7 hPa | 0 mm | - | 770 W/m² | - |
| 1787479803 | 26.11° C | 45% | 1016.9 hPa | 0 mm | - | 749 W/m² | - |
| 1787479203 | 25.56° C | 48% | 1017 hPa | 0 mm | - | 753 W/m² | - |
| 1787478603 | 25.56° C | 47% | 1017 hPa | 0 mm | - | 702 W/m² | - |
| 1787478003 | 25° C | 46% | 1017.1 hPa | 0 mm | - | 686 W/m² | - |
| 1787477403 | 25° C | 49% | 1017 hPa | 0 mm | - | 629 W/m² | - |
| 1787476803 | 25° C | 52% | 1017.1 hPa | 0 mm | - | 578 W/m² | - |
| 1787476203 | 24.44° C | 53% | 1017 hPa | 0 mm | - | 591 W/m² | - |
| 1787475603 | 23.89° C | 57% | 1017.1 hPa | 0 mm | - | 547 W/m² | - |
| 1787475003 | 23.89° C | 57% | 1016.8 hPa | 0 mm | - | 498 W/m² | - |
| 1787474403 | 23.33° C | 61% | 1017.3 hPa | 0 mm | - | 386 W/m² | - |
| 1787473803 | 23.33° C | 63% | 1017.1 hPa | 0 mm | - | 445 W/m² | - |
| 1787473203 | 22.78° C | 63% | 1016.9 hPa | 0 mm | - | 393 W/m² | - |
| 1787472603 | 22.78° C | 65% | 1016.8 hPa | 0 mm | - | 204 W/m² | - |
| 1787472003 | 22.22° C | 67% | 1016.9 hPa | 0 mm | - | 204 W/m² | - |
| 1787471403 | 22.22° C | 67% | 1016.9 hPa | 0 mm | - | 287 W/m² | - |
| 1787470803 | 21.67° C | 71% | 1016.9 hPa | 0 mm | - | 254 W/m² | - |
| 1787470203 | 21.67° C | 72% | 1016.8 hPa | 0 mm | - | 228 W/m² | - |
| 1787469603 | 21.11° C | 75% | 1016.8 hPa | 0 mm | - | 212 W/m² | - |
| 1787469003 | 21.11° C | 77% | 1016.8 hPa | 0 mm | - | 170 W/m² | - |
| 1787468403 | 20.56° C | 79% | 1016.7 hPa | 0 mm | - | 113 W/m² | - |
| 1787467803 | 20.56° C | 79% | 1016.8 hPa | 0 mm | - | 111 W/m² | - |
* Rain latest hour (hover to see other rain measurements)
** Current wind speed in m/s (hover to see current wind gust speed)